This is the latest recevied weather packets stored in our database for station/object KC3AWA. If no packets are shown the sender has not sent any weather packets the latest 10 day(s).
| Time | Temp. | Humidity | Pressure | Rain* | Wind** | Luminosity | Snow |
|---|---|---|---|---|---|---|---|
| 1777918190 | 21.11° C | 39% | 1008.3 hPa | 0 mm | - | 819 W/m² | - |
| 1777917889 | 21.67° C | 40% | 1008.4 hPa | 0 mm | - | 823 W/m² | - |
| 1777917587 | 21.67° C | 37% | 1008.3 hPa | 0 mm | - | 829 W/m² | - |
| 1777917284 | 22.22° C | 37% | 1008.4 hPa | 0 mm | - | 829 W/m² | - |
| 1777916981 | 21.67° C | 36% | 1008.5 hPa | 0 mm | - | 832 W/m² | - |
| 1777916679 | 21.67° C | 38% | 1008.8 hPa | 0 mm | - | 837 W/m² | - |
| 1777916376 | 20.56° C | 40% | 1008.4 hPa | 0 mm | - | 836 W/m² | - |
| 1777916072 | 20.56° C | 41% | 1008.6 hPa | 0 mm | - | 842 W/m² | - |
| 1777915770 | 21.11° C | 39% | 1008.8 hPa | 0 mm | - | 839 W/m² | - |
| 1777915466 | 21.11° C | 42% | 1008.8 hPa | 0 mm | - | 842 W/m² | - |
| 1777915162 | 21.11° C | 42% | 1008.8 hPa | 0 mm | - | 842 W/m² | - |
| 1777914860 | 20.56° C | 42% | 1009 hPa | 0 mm | - | 847 W/m² | - |
| 1777914557 | 20° C | 43% | 1009.2 hPa | 0 mm | - | 843 W/m² | - |
| 1777914253 | 20.56° C | 44% | 1009.1 hPa | 0 mm | - | 844 W/m² | - |
| 1777913950 | 21.11° C | 43% | 1009 hPa | 0 mm | - | 845 W/m² | - |
| 1777913646 | 20.56° C | 42% | 1009.3 hPa | 0 mm | - | 842 W/m² | - |
| 1777913343 | 21.11° C | 42% | 1009.3 hPa | 0 mm | - | 840 W/m² | - |
| 1777913040 | 20.56° C | 42% | 1009 hPa | 0 mm | - | 839 W/m² | - |
| 1777912735 | 21.11° C | 43% | 1009.5 hPa | 0 mm | - | 841 W/m² | - |
| 1777912431 | 20° C | 46% | 1009.5 hPa | 0 mm | - | 834 W/m² | - |
| 1777912128 | 20.56° C | 41% | 1009.4 hPa | 0 mm | - | 836 W/m² | - |
| 1777911824 | 20° C | 42% | 1009.5 hPa | 0 mm | - | 835 W/m² | - |
| 1777911521 | 19.44° C | 43% | 1009.5 hPa | 0 mm | - | 830 W/m² | - |
| 1777911217 | 19.44° C | 45% | 1009.8 hPa | 0 mm | - | 829 W/m² | - |
| 1777910915 | 19.44° C | 44% | 1009.5 hPa | 0 mm | - | 825 W/m² | - |
* Rain latest hour (hover to see other rain measurements)
** Current wind speed in m/s (hover to see current wind gust speed)